Time,TemperatureF,DewpointF,PressureIn,WindDirection,WindDirectionDegrees,WindSpeedMPH,WindSpeedGustMPH,Humidity,HourlyPrecipIn,Conditions,Clouds,dailyrainin,SolarRadiationWatts/m^2,SoftwareType,DateUTC
2013-08-19 00:02:00,75.0,58.0,-100.00,SE,139,3.0,5.0,56,0.00,,,0.00,0.000000,,2013-08-19 05:02:00,
2013-08-19 00:42:00,75.0,58.0,-100.00,SSE,151,2.0,4.0,55,0.00,,,0.00,0.000000,,2013-08-19 05:42:00,
2013-08-19 00:52:00,75.0,58.0,-100.00,SSE,151,2.0,4.0,55,0.00,,,0.00,0.000000,,2013-08-19 05:52:00,
2013-08-19 01:02:00,75.0,58.0,-100.00,SSE,151,2.0,4.0,55,0.00,,,0.00,0.000000,,2013-08-19 06:02:00,
2013-08-19 01:42:00,77.0,56.0,-100.00,SE,144,3.0,7.0,48,0.00,,,0.00,0.000000,,2013-08-19 06:42:00,
2013-08-19 01:52:00,77.0,56.0,-100.00,SE,144,3.0,7.0,48,0.00,,,0.00,0.000000,,2013-08-19 06:52:00,
2013-08-19 02:01:00,77.0,56.0,-100.00,SE,144,3.0,7.0,48,0.00,,,0.00,0.000000,,2013-08-19 07:01:00,
2013-08-19 02:42:00,77.0,57.0,-100.00,ESE,107,3.0,7.0,50,0.00,,,0.00,0.000000,,2013-08-19 07:42:00,
2013-08-19 02:52:00,77.0,57.0,-100.00,ESE,107,3.0,7.0,50,0.00,,,0.00,0.000000,,2013-08-19 07:52:00,
2013-08-19 03:02:00,77.0,57.0,-100.00,ESE,107,3.0,7.0,50,0.00,,,0.00,0.000000,,2013-08-19 08:02:00,
2013-08-19 03:42:00,75.0,58.0,-100.00,ENE,77,4.0,9.0,55,0.00,,,0.00,0.000000,,2013-08-19 08:42:00,
2013-08-19 03:52:00,75.0,58.0,-100.00,ENE,77,4.0,9.0,55,0.00,,,0.00,0.000000,,2013-08-19 08:52:00,
2013-08-19 04:01:00,75.0,58.0,-100.00,ENE,77,4.0,9.0,55,0.00,,,0.00,0.000000,,2013-08-19 09:01:00,
2013-08-19 04:43:00,74.0,60.0,-100.00,ESE,103,4.0,10.0,61,0.00,,,0.00,0.000000,,2013-08-19 09:43:00,
2013-08-19 04:53:00,74.0,60.0,-100.00,ESE,103,4.0,10.0,61,0.00,,,0.00,0.000000,,2013-08-19 09:53:00,
2013-08-19 05:03:00,74.0,60.0,-100.00,ESE,103,4.0,10.0,61,0.00,,,0.00,0.000000,,2013-08-19 10:03:00,
2013-08-19 05:43:00,73.0,61.0,-100.00,ESE,119,5.0,12.0,65,0.00,,,0.00,0.000000,,2013-08-19 10:43:00,
2013-08-19 05:52:00,73.0,61.0,-100.00,ESE,119,5.0,12.0,65,0.00,,,0.00,0.000000,,2013-08-19 10:52:00,
2013-08-19 06:02:00,73.0,61.0,-100.00,ESE,119,5.0,12.0,65,0.00,,,0.00,0.000000,,2013-08-19 11:02:00,
2013-08-19 06:45:00,72.0,60.0,-100.00,SE,136,5.0,10.0,67,0.00,,,0.00,0.000000,,2013-08-19 11:45:00,
2013-08-19 06:52:00,72.0,60.0,-100.00,SE,136,5.0,10.0,67,0.00,,,0.00,0.000000,,2013-08-19 11:52:00,
2013-08-19 07:01:00,72.0,60.0,-100.00,SE,136,5.0,10.0,67,0.00,,,0.00,0.000000,,2013-08-19 12:01:00,
2013-08-19 07:42:00,71.0,61.0,-100.00,SE,134,5.0,10.0,71,0.00,,,0.00,4.000000,,2013-08-19 12:42:00,
2013-08-19 07:52:00,71.0,61.0,-100.00,SE,134,5.0,10.0,71,0.00,,,0.00,4.000000,,2013-08-19 12:52:00,
2013-08-19 08:03:00,71.0,61.0,-100.00,SE,134,5.0,10.0,71,0.00,,,0.00,4.000000,,2013-08-19 13:03:00,
2013-08-19 08:42:00,75.0,64.0,-100.00,SE,127,6.0,12.0,68,0.00,,,0.00,72.000000,,2013-08-19 13:42:00,
2013-08-19 08:52:00,75.0,64.0,-100.00,SE,127,6.0,12.0,68,0.00,,,0.00,72.000000,,2013-08-19 13:52:00,
2013-08-19 09:02:00,75.0,64.0,-100.00,SE,127,6.0,12.0,68,0.00,,,0.00,72.000000,,2013-08-19 14:02:00,
2013-08-19 09:42:00,79.0,65.0,-100.00,South,173,3.0,13.0,62,0.00,,,0.00,244.000000,,2013-08-19 14:42:00,
2013-08-19 09:52:00,79.0,65.0,-100.00,South,173,3.0,13.0,62,0.00,,,0.00,244.000000,,2013-08-19 14:52:00,
2013-08-19 10:01:00,79.0,65.0,-100.00,South,173,3.0,13.0,62,0.00,,,0.00,244.000000,,2013-08-19 15:01:00,
2013-08-19 10:44:00,85.0,65.0,-100.00,East,95,3.0,8.0,52,0.00,,,0.00,475.000000,,2013-08-19 15:44:00,
2013-08-19 10:54:00,85.0,65.0,-100.00,East,95,3.0,8.0,52,0.00,,,0.00,475.000000,,2013-08-19 15:54:00,
2013-08-19 11:05:00,85.0,65.0,-100.00,East,95,3.0,8.0,52,0.00,,,0.00,475.000000,,2013-08-19 16:05:00,
2013-08-19 11:47:00,89.0,65.0,-100.00,SSE,157,4.0,8.0,45,0.00,,,0.00,674.000000,,2013-08-19 16:47:00,
2013-08-19 12:04:00,89.0,65.0,-100.00,SSE,157,4.0,8.0,45,0.00,,,0.00,674.000000,,2013-08-19 17:04:00,
2013-08-19 12:49:00,93.0,62.0,-100.00,SE,144,5.0,12.0,36,0.00,,,0.00,826.000000,,2013-08-19 17:49:00,
2013-08-19 12:57:00,93.0,62.0,-100.00,SE,144,5.0,12.0,36,0.00,,,0.00,826.000000,,2013-08-19 17:57:00,
2013-08-19 13:05:00,93.0,62.0,-100.00,SE,144,5.0,12.0,36,0.00,,,0.00,826.000000,,2013-08-19 18:05:00,
2013-08-19 13:07:00,93.0,56.0,-100.00,SE,145,7.0,12.0,29,0.00,,,0.00,921.000000,,2013-08-19 18:07:00,
2013-08-19 13:50:00,-999.0,-99.9,-100.00,SE,145,7.0,12.0,29,0.00,,,0.00,921.000000,,2013-08-19 18:50:00,
2013-08-19 14:00:00,-999.0,-99.9,-100.00,SE,145,7.0,12.0,29,0.00,,,0.00,921.000000,,2013-08-19 19:00:00,
2013-08-19 14:07:00,96.0,58.0,-100.00,SSE,162,5.0,12.0,28,0.00,,,0.00,967.000000,,2013-08-19 19:07:00,
2013-08-19 14:30:00,-999.0,-99.9,-100.00,SSE,162,5.0,12.0,28,0.00,,,0.00,967.000000,,2013-08-19 19:30:00,
2013-08-19 14:50:00,96.0,58.0,-100.00,SSE,162,5.0,12.0,28,0.00,,,0.00,967.000000,,2013-08-19 19:50:00,
2013-08-19 14:59:00,96.0,58.0,-100.00,SSE,162,5.0,12.0,28,0.00,,,0.00,967.000000,,2013-08-19 19:59:00,
2013-08-19 15:07:00,98.0,57.0,-100.00,SE,142,5.0,13.0,26,0.00,,,0.00,946.000000,,2013-08-19 20:07:00,
2013-08-19 15:50:00,98.0,57.0,-100.00,SE,142,5.0,13.0,26,0.00,,,0.00,946.000000,,2013-08-19 20:50:00,
2013-08-19 16:00:00,-999.0,-99.9,-100.00,SE,142,5.0,13.0,-999,-99.99,,,-99.99,946.000000,,2013-08-19 21:00:00,
2013-08-19 16:46:00,98.0,56.0,-100.00,NE,47,4.0,10.0,25,0.00,,,0.00,840.000000,,2013-08-19 21:46:00,
2013-08-19 16:55:00,98.0,56.0,-100.00,NE,47,4.0,10.0,25,0.00,,,0.00,840.000000,,2013-08-19 21:55:00,
2013-08-19 17:06:00,98.0,56.0,-100.00,NE,47,4.0,10.0,25,0.00,,,0.00,840.000000,,2013-08-19 22:06:00,
2013-08-19 17:44:00,98.0,56.0,-100.00,East,93,4.0,10.0,25,0.00,,,0.00,689.000000,,2013-08-19 22:44:00,
2013-08-19 17:55:00,98.0,56.0,-100.00,East,93,4.0,10.0,25,0.00,,,0.00,689.000000,,2013-08-19 22:55:00,
2013-08-19 18:05:00,98.0,56.0,-100.00,East,93,4.0,10.0,25,0.00,,,0.00,689.000000,,2013-08-19 23:05:00,
2013-08-19 18:48:00,96.0,58.0,-100.00,East,81,5.0,13.0,28,0.00,,,0.00,463.000000,,2013-08-19 23:48:00,
2013-08-19 18:55:00,96.0,58.0,-100.00,East,81,5.0,13.0,28,0.00,,,0.00,463.000000,,2013-08-19 23:55:00,
2013-08-19 19:02:00,96.0,58.0,-100.00,East,81,5.0,13.0,28,0.00,,,0.00,463.000000,,2013-08-20 00:02:00,
2013-08-19 19:42:00,92.0,55.0,-100.00,NE,53,5.0,13.0,29,0.00,,,0.00,264.000000,,2013-08-20 00:42:00,
2013-08-19 19:52:00,92.0,55.0,-100.00,NE,53,5.0,13.0,29,0.00,,,0.00,264.000000,,2013-08-20 00:52:00,
2013-08-19 20:03:00,92.0,55.0,-100.00,NE,53,5.0,13.0,29,0.00,,,0.00,264.000000,,2013-08-20 01:03:00,
2013-08-19 20:42:00,86.0,56.0,-100.00,East,98,1.0,9.0,36,0.00,,,0.00,54.000000,,2013-08-20 01:42:00,
2013-08-19 20:52:00,86.0,56.0,-100.00,East,98,1.0,9.0,36,0.00,,,0.00,54.000000,,2013-08-20 01:52:00,
2013-08-19 21:02:00,86.0,56.0,-100.00,East,98,1.0,9.0,36,0.00,,,0.00,54.000000,,2013-08-20 02:02:00,
2013-08-19 21:52:00,80.0,60.0,-100.00,SE,140,2.0,4.0,51,0.00,,,0.00,1.000000,,2013-08-20 02:52:00,
2013-08-19 22:02:00,80.0,60.0,-100.00,SE,140,2.0,4.0,51,0.00,,,0.00,1.000000,,2013-08-20 03:02:00,
2013-08-19 22:43:00,80.0,59.0,-100.00,SE,137,3.0,5.0,49,0.00,,,0.00,0.000000,,2013-08-20 03:43:00,
2013-08-19 22:54:00,80.0,59.0,-100.00,SE,137,3.0,5.0,49,0.00,,,0.00,0.000000,,2013-08-20 03:54:00,
2013-08-19 23:03:00,80.0,59.0,-100.00,SE,137,3.0,5.0,49,0.00,,,0.00,0.000000,,2013-08-20 04:03:00,
2013-08-19 23:43:00,80.0,56.0,-100.00,SE,131,3.0,7.0,44,0.00,,,0.00,0.000000,,2013-08-20 04:43:00,
2013-08-19 23:53:00,80.0,56.0,-100.00,SE,131,3.0,7.0,44,0.00,,,0.00,0.000000,,2013-08-20 04:53:00,